This is the latest recevied weather packets stored in our database for station/object BMCB-24. If no packets are shown the sender has not sent any weather packets the latest 10 day(s).
| Time | Temp. | Humidity | Pressure | Rain* | Wind** | Luminosity | Snow |
|---|---|---|---|---|---|---|---|
| 1778007067 | 11.67° C | 98% | 1007.9 hPa | 1.52 mm | - | 0 W/m² | - |
| 1778006469 | 11.67° C | 98% | 1007.8 hPa | 1.52 mm | - | 2 W/m² | - |
| 1778002266 | 12.22° C | 96% | 1007.9 hPa | 0 mm | - | 26 W/m² | - |
| 1778001659 | 12.22° C | 96% | 1007.9 hPa | 0 mm | - | 40 W/m² | - |
| 1777993262 | 12.22° C | 95% | 1008.5 hPa | 0.51 mm | - | 120 W/m² | - |
| 1777992659 | 12.22° C | 94% | 1008.6 hPa | 0.51 mm | - | 140 W/m² | - |
| 1777986659 | 12.22° C | 95% | 1009.1 hPa | 2.29 mm | - | 196 W/m² | - |
| 1777986061 | 12.22° C | 94% | 1009.1 hPa | 3.3 mm | - | 194 W/m² | - |
| 1777984860 | 12.78° C | 95% | 1009.1 hPa | 5.08 mm | - | 74 W/m² | - |
| 1777981259 | 13.33° C | 89% | 1009.1 hPa | 1.27 mm | - | 28 W/m² | - |
| 1777980059 | 13.89° C | 83% | 1008.9 hPa | 0 mm | - | 34 W/m² | - |
| 1777979460 | 14.44° C | 81% | 1008.9 hPa | 0 mm | - | 80 W/m² | - |
| 1777978861 | 14.44° C | 81% | 1009 hPa | 0 mm | - | 170 W/m² | - |
| 1777974059 | 13.89° C | 84% | 1009.5 hPa | 0 mm | - | 288 W/m² | - |
| 1777971657 | 13.89° C | 87% | 1009.7 hPa | 0 mm | - | 348 W/m² | - |
| 1777971058 | 13.33° C | 87% | 1009.7 hPa | 0 mm | - | 356 W/m² | - |
| 1777969259 | 12.78° C | 89% | 1009.9 hPa | 0 mm | - | 282 W/m² | - |
| 1777966256 | 12.78° C | 93% | 1010.3 hPa | 0 mm | - | 230 W/m² | - |
| 1777963858 | 11.67° C | 95% | 1010.7 hPa | 0 mm | - | 154 W/m² | - |
| 1777957254 | 10° C | 10% | 1010.9 hPa | 0 mm | - | - | - |
| 1777954857 | 9.44° C | 10% | 1011 hPa | 0 mm | - | - | - |
| 1777952456 | 9.44° C | 10% | 1011.3 hPa | 0 mm | - | - | - |
| 1777950056 | 9.44° C | 10% | 1011.6 hPa | 0 mm | - | - | - |
| 1777948858 | 9.44° C | 10% | 1011.7 hPa | 0 mm | - | - | - |
| 1777936866 | 8.89° C | 10% | 1012.9 hPa | 0 mm | - | - | - |
* Rain latest hour (hover to see other rain measurements)
** Current wind speed in m/s (hover to see current wind gust speed)